Hourly Data Report for July 15, 2021

LYNN LAKE
MANITOBA
Current Station Operator: NAVCAN

56°51'50.000" N
101°04'34.000" W
356.60 m
5061645
71078
YYL

Download Data

Hourly Data (July 2021)
Hourly Data Report for July 15, 2021
TIME
LST
Temp Definition
°C
Dew Point Definition
°C
Rel Hum Definition
%
Precip. Amount Definition
mm

Wind Dir Definition
10's deg

Wind Spd Definition
km/h
Visibility Definition
km
Stn Press Definition
kPa
Hmdx Definition


Wind Chill Definition


Weather Definition


00:00 16.9 10.6 66 0.0 21 8 6.4 96.84     Haze
01:00 16.5 10.9 69 0.0 21 9 6.4 96.80     Haze
02:00 16.5 11.1 70 0.0 21 13 8.1 96.76     Haze
03:00 16.1 10.9 71 0.0 21 11 4.8 96.75     Haze
04:00 16.4 11.5 73 0.0 21 11 4.0 96.73     Haze
05:00 15.3 11.9 80 0.0 20 9 9.7 96.70     Haze
06:00 15.9 12.3 79 0.0 20 11 6.4 96.66     Haze
07:00 16.9 12.9 77 0.0 19 9 4.8 96.62     Haze
08:00 18.7 13.6 72 0.0 19 9 4.8 96.57     Haze
09:00 21.3 13.9 62 0.0 21 15 4.0 96.51 25   Haze
10:00 23.6 15.6 61 0.0 20 11 4.8 96.45 28   Haze
11:00 25.3 15.3 53 0.0 19 18 4.8 96.37 29   Haze
12:00 26.6 15.1 49 0.0 20 21 8.1 96.31 31   Haze
13:00 27.2 14.6 45 0.0 20 18 12.9 96.28 31   LegendNANA
14:00 28.5 14.3 41 0.0 21 18 8.1 96.24 32   Haze
15:00 30.1 13.9 37 0.0 20 22 9.7 96.19 33   Haze
16:00 30.3 13.0 34 0.0 22 24 6.4 96.15 33   Haze
17:00 30.4 12.3 32 0.0 23 18 8.1 96.11 33   Haze
18:00 29.6 11.9 33 0.0 22 18 9.7 96.11 32   Haze
19:00 26.8 13.2 42 0.0 20 8 14.5 96.07 30   LegendNANA
20:00 25.5 13.8 48 0.0 21 9 4.8 96.04 29   Haze
21:00 24.9 13.4 48 0.0 19 9 6.4 96.05 28   Haze
22:00 23.2 13.2 53 0.0 34 5 9.7 96.07 26   Haze
23:00 24.2 11.7 45 0.0 34 26 8.1 96.20 26   Haze

Notes on Data Quality.

Legend

  • E = Estimated
  • M = Missing
  • NA = Not Available*
  • [empty] = Indicates an unobserved value
Date modified: